Friendswood, TX

11:20 AM CDT on September 29, 2016 (GMT -0500)
Clover

Weather History for KLVJ - March, 2014

Change the Weather History Date:

Monday, March 3, 2014

  Actual Average (KHOU) Record (KHOU)
Temperature  
Mean Temperature 38 °F 60 °F  
Max Temperature 46 °F 70 °F 86 °F (1893)
Min Temperature 30 °F 50 °F 21 °F (1943)
Degree Days  
Heating Degree Days 27 7  
Month to date heating degree days 21  
Since 1 July heating degree days 1209  
Cooling Degree Days 0 2  
Month to date cooling degree days 4  
Year to date cooling degree days 42  
Moisture  
Dew Point 26 °F    
Average Humidity 64    
Maximum Humidity 76    
Minimum Humidity 47    
Precipitation  
Precipitation 0.02 in 0.11 in 1.03 in (1957)
Month to date precipitation 0.34  
Year to date precipitation 6.92  
Sea Level Pressure  
Sea Level Pressure 30.26 in    
Wind  
Wind Speed 16 mph (North)    
Max Wind Speed 22 mph    
Max Gust Speed 30 mph    
Visibility 10 miles    
Events Rain    
T = Trace of Precipitation, MM = Missing Value Source: NWS Daily Summary

Daily Weather History Graph

Daily Weather History Graph

Search for Another Location

Airport or City:

Trip Planner

Search our weather history database for the weather conditions in past years. The results will help you decide how hot, cold, wet, or windy it might be!

Date:

Astronomy

Mar. 03, 2014 Rise Set
Actual Time 6:44 AM CST 6:21 PM CST
Civil Twilight 6:20 AM CST 6:45 PM CST
Nautical Twilight 5:52 AM CST 7:13 PM CST
Astronomical Twilight 5:25 AM CST 7:40 PM CST
Moon 8:07 AM CST (3/3) 9:08 PM CST (3/3)
Length of Visible Light 12h 25m
Length of Day
11h 37m
Waxing Crescent, 8% of the Moon is Illuminated
Mar 3
Waxing Crescent
Mar 8
First Quarter
Mar 16
Full
Mar 23
Last Quarter
Mar 30
New

Hourly Weather History & Observations

Time (CST) Temp. Windchill Dew Point Humidity Pressure Visibility Wind Dir Wind Speed Gust Speed Precip Events Conditions
12:31 AM 37.9 °F 28.9 °F 30.9 °F 76% 30.15 in 10.0 mi NNW 16.1 mph - N/A   Overcast
12:53 AM 37.0 °F 27.4 °F 30.0 °F 76% 30.16 in 10.0 mi NNW 17.3 mph - N/A   Overcast
1:27 AM 36.0 °F 25.6 °F 28.9 °F 76% 30.17 in 10.0 mi North 18.4 mph 24.2 mph N/A   Overcast
1:53 AM 36.0 °F 27.1 °F 28.9 °F 76% 30.17 in 10.0 mi North 13.8 mph - N/A   Overcast
2:53 AM 34.0 °F 23.8 °F 26.1 °F 73% 30.17 in 10.0 mi North 16.1 mph 29.9 mph N/A   Overcast
3:53 AM 32.0 °F 19.5 °F 25.0 °F 75% 30.19 in 10.0 mi NNW 21.9 mph 27.6 mph N/A   Overcast
4:53 AM 30.9 °F 18.4 °F 24.1 °F 76% 30.22 in 10.0 mi North 20.7 mph 27.6 mph N/A   Overcast
5:53 AM 30.9 °F 18.7 °F 23.0 °F 72% 30.24 in 10.0 mi North 19.6 mph 26.5 mph N/A   Overcast
6:53 AM 30.9 °F 20.2 °F 23.0 °F 72% 30.27 in 10.0 mi North 15.0 mph - N/A   Overcast
7:53 AM 30.9 °F 18.7 °F 23.0 °F 72% 30.30 in 10.0 mi North 19.6 mph 23.0 mph N/A   Overcast
8:53 AM 30.0 °F 18.7 °F 21.9 °F 72% 30.32 in 10.0 mi North 16.1 mph 27.6 mph N/A   Overcast
9:21 AM 32.0 °F 22.1 °F 21.9 °F 66% 30.33 in 10.0 mi North 13.8 mph - N/A   Overcast
9:53 AM 33.1 °F 22.6 °F 23.0 °F 66% 30.31 in 10.0 mi North 16.1 mph 23.0 mph N/A   Overcast
10:53 AM 37.9 °F 29.6 °F 25.0 °F 60% 30.34 in 10.0 mi North 13.8 mph 23.0 mph N/A   Mostly Cloudy
11:09 AM 37.9 °F 29.6 °F 25.0 °F 60% 30.33 in 10.0 mi North 13.8 mph 23.0 mph N/A   Scattered Clouds
11:53 AM 39.9 °F 32.1 °F 25.0 °F 55% 30.32 in 10.0 mi North 13.8 mph - N/A   Mostly Cloudy
12:53 PM 43.0 °F 36.8 °F 27.0 °F 53% 30.29 in 10.0 mi North 11.5 mph 17.3 mph N/A   Overcast
1:53 PM 44.1 °F 40.1 °F 27.0 °F 51% 30.27 in 10.0 mi North 6.9 mph - N/A   Overcast
2:34 PM 46.9 °F - 28.0 °F 48% 30.25 in 10.0 mi NNE 13.8 mph - N/A   Scattered Clouds
2:53 PM 46.0 °F 39.3 °F 27.0 °F 47% 30.25 in 10.0 mi North 16.1 mph 23.0 mph N/A   Clear
3:53 PM 45.0 °F 37.9 °F 28.0 °F 52% 30.25 in 10.0 mi NNE 16.1 mph - N/A   Clear
4:53 PM 43.0 °F 36.0 °F 27.0 °F 53% 30.25 in 10.0 mi North 13.8 mph 24.2 mph N/A   Clear
5:53 PM 41.0 °F 33.1 °F 26.1 °F 55% 30.24 in 10.0 mi NNE 15.0 mph - N/A   Clear
6:53 PM 37.9 °F 30.5 °F 26.1 °F 62% 30.27 in 10.0 mi North 11.5 mph - N/A   Clear
7:53 PM 37.0 °F 28.1 °F 25.0 °F 62% 30.27 in 10.0 mi North 15.0 mph - 0.00 in Rain Light Rain
8:53 PM 37.0 °F 28.1 °F 26.1 °F 65% 30.27 in 10.0 mi North 15.0 mph 21.9 mph 0.00 in   Mostly Cloudy
9:21 PM 36.0 °F 27.5 °F 25.0 °F 64% 30.29 in 10.0 mi NNE 12.7 mph - N/A   Overcast
9:53 PM 36.0 °F 27.1 °F 25.0 °F 64% 30.29 in 10.0 mi North 13.8 mph - N/A   Overcast
10:53 PM 36.0 °F 29.6 °F 25.0 °F 64% 30.28 in 10.0 mi North 8.1 mph - N/A   Overcast
11:03 PM 36.0 °F 28.5 °F 25.0 °F 64% 30.28 in 10.0 mi North 10.4 mph - N/A   Overcast
11:53 PM 35.1 °F 27.4 °F 27.0 °F 72% 30.28 in 9.0 mi North 10.4 mph - 0.02 in Rain Light Rain